Regional Weather Roundup
Issued by NWS Sterling, VA

Home | Current Version | Previous Version | Graphics & Text | Print | Product List | Glossary Off
Versions: 1 2 3 4 5 6 7 8 9 10 11 12 13 14 15 16 17 18 19 20 21 22 23 24 25 26 27

000
ASUS41 KLWX 171211
RWRLWX

REGIONAL WEATHER ROUNDUP
NATIONAL WEATHER SERVICE BALTIMORE MD/WASHINGTON DC
700 AM EST SUN DEC 17 2017

Note: "FAIR" indicates few or no clouds below 12,000 feet
with no significant weather and/or obstructions to visibility.
 TC=TEMPERATURE CELSIUS

 * =Non NWS site. Station does not report precipitation (e.g. rain,
    snow, etc.), thunder, or fog.

DCZ001-MDZ009-015-VAZ040>042-051-053>054-171300-
WASHINGTON METRO

CITY           SKY/WX    TMP DP  RH WIND       PRES   REMARKS
WASHINGTON NAT CLOUDY    33  27  78 CALM      30.26R
DULLES         CLOUDY    27  24  89 CALM      30.24S
ANDREWS AFB    MOCLDY    28  23  81 CALM      30.23R
FT BELVOIR     CLOUDY    26  23  88 CALM      30.25S
QUANTICO       PTCLDY    28  26  92 NW6       30.27S
COLLEGE PARK*  CLOUDY    26  23  91 CALM      30.25S
LEESBURG*      MOCLDY    30  28  93 CALM      30.25F
MANASSAS*      MOCLDY    23  21  92 CALM      30.25F
GAITHERSBURG*  PTCLDY    26  24  92 CALM      30.24R

$$

MDZ006>007-011-014-171300-
BALTIMORE METRO

CITY           SKY/WX    TMP DP  RH WIND       PRES   REMARKS
BWI AIRPORT    MOCLDY    29  25  85 CALM      30.25R
MD SCIENCE CTR   N/A     34  27  75 MISG      30.26R
MARTIN STATE   MOCLDY    28  27  93 CALM      30.29R
ANNAPOLIS      MOCLDY    32  26  78 CALM      30.25R
FORT MEADE*    CLOUDY    25  23  93 CALM      30.27R

$$

MDZ012-015-019>023-171300-
MARYLAND EASTERN SHORE

CITY           SKY/WX    TMP DP  RH WIND       PRES   REMARKS
OCEAN CITY     CLEAR     33  29  85 CALM      30.28R
SALISBURY      PTCLDY    27  25  92 CALM      30.27R
BAY BRIDGE AP* PTCLDY    30  27  86 CALM      30.26R
CAMBRIDGE*       N/A     27  25  93 CALM      30.27R
EASTON*        CLEAR     28  27  93 CALM      30.29R

$$

MDZ017>025-171300-
SOUTHERN MARYLAND

CITY           SKY/WX    TMP DP  RH WIND       PRES   REMARKS
PATUXENT RIVER MOCLDY    27  25  92 CALM      30.26R
ST INIGOES     PTCLDY    29  26  89 CALM      30.26R
LEONARDTOWN*   PTCLDY    30  27  86 CALM      30.27R

$$

MDZ003>005-171300-
NORTH CENTRAL MARYLAND

CITY           SKY/WX    TMP DP  RH WIND       PRES   REMARKS
FREDERICK*     CLOUDY    28  27  93 S5        30.28R
HAGERSTOWN APT CLOUDY    31  24  75 SE5       30.22R
WESTMINSTER*   CLOUDY    34  27  75 CALM        N/A

$$

MDZ501>502-171300-
WESTERN MARYLAND

CITY           SKY/WX    TMP DP  RH WIND       PRES   REMARKS
OAKLAND*       CLOUDY    32  25  74 W7        30.12S
CUMBERLAND*    CLOUDY    27  27 100 NW3       30.26S

$$

VAZ025>031-171300-
SHENANDOAH VALLEY

CITY           SKY/WX    TMP DP  RH WIND       PRES   REMARKS
WINCHESTER*    CLOUDY    34  23  64 W3        30.22S
FRONT ROYAL*   FAIR      34  27  75 S5        30.21S
LURAY*         CLOUDY    28  27  93 CALM      30.24R
NEW MARKET*    PTCLDY    27  22  81 SW7       30.23R
STAUNTON*      CLOUDY    26  22  84 CALM      30.26R
WAYNESBORO*    PTCLDY    32  23  71 CALM      30.24R

$$

WVZ021-048>050-054>055-171300-
EASTERN WEST VIRGINIA PANHANDLE

CITY           SKY/WX    TMP DP  RH WIND       PRES   REMARKS
MARTINSBURG    MOCLDY    32  24  72 S5        30.22R
PETERSBURG*    CLOUDY    27  23  84 CALM      30.23R

$$

VAZ036>039-050-171300-
CENTRAL FOOTHILLS

CITY           SKY/WX    TMP DP  RH WIND       PRES   REMARKS
CHARLOTTESVILL MOCLDY    31  24  75 W5        30.24R
CULPEPER*      FAIR      24  21  87 CALM      30.25S
ORANGE*        PTCLDY    27  23  86 CALM      30.24S
GORDONSVILLE*  PTCLDY    25  24  93 CALM      30.23S
WARRENTON*     PTCLDY    25  21  83 CALM      30.23S

$$

VAZ055>057-171300-
NORTH AND CENTRAL PIEDMONT

CITY           SKY/WX    TMP DP  RH WIND       PRES   REMARKS
FREDERICKSBRG* PTCLDY    25  24  93 CALM      30.25S
STAFFORD*      CLOUDY    26  26 100 CALM      30.29S

$$

NCZ024-NYZ072-PAZ021-071-VAZ022-071-171300-
OTHER REGIONAL OBSERVATIONS

CITY           SKY/WX    TMP DP  RH WIND       PRES   REMARKS
NEW YORK CITY  CLOUDY    32  21  64 NE5       30.28R
PHILADELPHIA   CLOUDY    32  25  75 E7        30.28R
PITTSBURGH     CLOUDY    37  27  67 W3        30.17S
ROANOKE        PTCLDY    36  25  64 N3        30.28R
RICHMOND       PTCLDY    29  23  78 SE3       30.26R
RALEIGH        CLOUDY    29  25  85 CALM      30.28R

$$

ANZ530>537-171300-
MARINE OBSERVATIONS

STATION/POSITION TIME  TEMP    WIND        PRES
                       AIR SEA DIR/SP/G
                 (UTC) (F)     (DEG/KT/KT) (MB)
THOMAS PT LIGHT  1200   36 43   CALM  /  2   N/A
BALT KEY BRIDGE  1148   35     220/  2/  2 1024.7R
COVE POINT       1148   38     300/  2/  3 1025.4R
LEWISETTA        1148   33 38  220/  2/  3 1024.9R
SOLOMONS ISLAND  1148   34 45  340/  2/  2 1024.4R
PINEY POINT      1148          330/  1/  1   N/A

$$





USA.gov is the U.S. government's official web portal to all federal, state and local government web resources and services.